Weather History for Taloyoak, NU

Change the Weather History Date:

Thursday, January 10, 2013

  Actual Average Record
Temperature  
Mean Temperature -27 °F -  
Max Temperature -17 °F -20 °F 0 °F (2003)
Min Temperature -37 °F -31 °F -47 °F (2004)
Degree Days  
Heating Degree Days 92    
Moisture  
Dew Point -29 °F    
Average Humidity 71    
Maximum Humidity 76    
Minimum Humidity 56    
Precipitation  
Precipitation 0.00 in - - ()
Sea Level Pressure  
Sea Level Pressure 29.79 in    
Wind  
Wind Speed 11 mph ()    
Max Wind Speed 24 mph    
Max Gust Speed 22 mph    
Visibility 10.5 miles    
Events Snow    
Averages and records for this station are not official NWS values.
T = Trace of Precipitation, MM = Missing Value Source: Averaged Metar Reports

Daily Weather History Graph

Daily Weather History Graph

Search for Another Location

Airport:

Trip Planner

Search our weather history database for the weather conditions in past years. The results will help you decide how hot, cold, wet, or windy it might be!

Date:

Astronomy

Jan. 10, 2013 Rise Set
Actual Time 11:49 AM CST 12:54 PM CST
Civil Twilight 9:37 AM CST 3:07 PM CST
Nautical Twilight 8:05 AM CST 4:39 PM CST
Astronomical Twilight 6:50 AM CST 5:54 PM CST
Moon 10:35 AM CST (1/10) 12:01 PM CST (1/10)
Length of Visible Light 5h 29m
Length of Day
1h 04m
Waning Crescent, 2% of the Moon is Illuminated
Jan 10
Waning Crescent
Jan 11
New
Jan 18
First Quarter
Jan 26
Full
Feb 3
Last Quarter

Hourly Weather History & Observations

Time (CST) Temp. Windchill Dew Point Humidity Pressure Visibility Wind Dir Wind Speed Gust Speed Precip Events Conditions
1:00 AM -20.2 °F -40.1 °F -25.6 °F 76% 29.64 in 15.0 mi West 9.2 mph - N/A   Scattered Clouds
2:00 AM -18.4 °F -42.9 °F -23.8 °F 76% 29.64 in 15.0 mi WNW 15.0 mph - N/A Snow Low Drifting Snow
2:39 AM - - - N/A% - 5.0 mi NW 21.9 mph - N/A   Unknown
3:00 AM -18.4 °F -42.9 °F -23.8 °F 76% 29.65 in 6.0 mi NW 15.0 mph 21.9 mph N/A Snow Blowing Snow
5:00 AM -18.4 °F -47.1 °F -23.8 °F 76% 29.67 in 8.0 mi NW 21.9 mph - N/A Snow Low Drifting Snow
5:11 AM - - - N/A% - 2.5 mi WNW 24.2 mph - N/A   Unknown
6:00 AM -19 °F - -25 °F 63% 29.70 in 10 mi NW 4.6 mph - -   Partly Cloudy
6:00 AM -18.4 °F -31.4 °F -23.8 °F 76% 29.70 in 10.0 mi NW 4.6 mph - N/A   Scattered Clouds
7:00 AM -18.4 °F -35.1 °F -23.8 °F 76% 29.71 in 12.0 mi West 6.9 mph - N/A   Scattered Clouds
8:00 AM -20.2 °F -35.5 °F -25.6 °F 76% 29.73 in 15.0 mi WSW 5.8 mph - N/A   Scattered Clouds
9:00 AM -20.2 °F -41.3 °F -25.6 °F 76% 29.76 in 15.0 mi West 10.4 mph - N/A   Scattered Clouds
10:00 AM -18.4 °F -41.2 °F -25.6 °F 70% 29.78 in 15.0 mi West 12.7 mph - N/A   Mostly Cloudy
11:00 AM -20.2 °F -43.4 °F -25.6 °F 76% 29.81 in 15.0 mi West 12.7 mph - N/A   Mostly Cloudy
12:00 PM -21 °F - -26 °F 65% 29.81 in 15 mi West 9.2 mph - -   Mostly Cloudy
12:00 PM -20.2 °F -38.8 °F -25.6 °F 76% 29.81 in 15.0 mi West 8.1 mph - N/A   Mostly Cloudy
1:00 PM -23.8 °F -48.9 °F -34.6 °F 57% 29.83 in 15.0 mi WSW 13.8 mph - N/A Snow Low Drifting Snow
2:00 PM -25.6 °F -45.4 °F -32.8 °F 69% 29.85 in 15.0 mi SW 8.1 mph - N/A Snow Mostly Cloudy
3:00 PM -25.6 °F -46.8 °F -32.8 °F 69% 29.86 in 15.0 mi SSW 9.2 mph - N/A   Mostly Cloudy
4:00 PM -31.0 °F -60.0 °F -41.8 °F 56% 29.87 in 7.0 mi SSW 16.1 mph - N/A Snow Low Drifting Snow
5:00 PM -31.0 °F -60.0 °F -36.4 °F 75% 29.89 in 10.0 mi SSW 16.1 mph - N/A Snow Low Drifting Snow
6:00 PM -28 °F - -34 °F 56% 29.89 in 7 mi SW 13.8 mph - - Snow Low Drifting Snow
6:00 PM -29.2 °F -54.8 °F -34.6 °F 75% 29.89 in 7.0 mi SW 12.7 mph - N/A Snow Low Drifting Snow
7:00 PM -27.4 °F -47.6 °F -32.8 °F 75% 29.91 in 5.0 mi South 8.1 mph - N/A   Ice Crystals
8:00 PM -27.4 °F -51.4 °F -34.6 °F 69% 29.91 in 5.0 mi SSW 11.5 mph - N/A   Ice Crystals
9:00 PM -29.2 °F -58.5 °F -34.6 °F 75% 29.92 in 4.0 mi SSW 17.3 mph - N/A Snow Ice Crystals